Weather History for Alexandroupoli, Greece

Change the Weather History Date:

Wednesday, March 27, 2013

  Actual Average Record
Temperature  
Mean Temperature 50 °F -  
Max Temperature 54 °F 62 °F 71 °F (2001)
Min Temperature 46 °F 44 °F 28 °F (2009)
Degree Days  
Heating Degree Days 15    
Moisture  
Dew Point 45 °F    
Average Humidity 87    
Maximum Humidity 95    
Minimum Humidity 62    
Precipitation  
Precipitation 0.08 in 0.05 in - ()
Sea Level Pressure  
Sea Level Pressure 29.75 in    
Wind  
Wind Speed 9 mph ()    
Max Wind Speed 17 mph    
Max Gust Speed 29 mph    
Visibility 6.1 miles    
Events Rain    
Averages and records for this station are not official NWS values.
T = Trace of Precipitation, MM = Missing Value Source: Averaged Metar Reports

Daily Weather History Graph

Daily Weather History Graph

Search for Another Location

Airport:

Trip Planner

Search our weather history database for the weather conditions in past years. The results will help you decide how hot, cold, wet, or windy it might be!

Date:

Astronomy

Mar. 27, 2013 Rise Set
Actual Time 6:08 AM EET 6:35 PM EET
Civil Twilight 5:40 AM EET 7:03 PM EET
Nautical Twilight 5:08 AM EET 7:35 PM EET
Astronomical Twilight 4:35 AM EET 8:09 PM EET
Moon 6:58 PM EET (3/27) 5:47 AM EET (3/27)
Length of Visible Light 13h 22m
Length of Day
12h 27m
Full, 100% of the Moon is Illuminated
Mar 27
Full
Apr 3
Last Quarter
Apr 10
New
Apr 18
First Quarter
Apr 25
Full

Hourly Weather History & Observations

Time (EET) Temp. Windchill Dew Point Humidity Pressure Visibility Wind Dir Wind Speed Gust Speed Precip Events Conditions
12:20 AM 51.8 °F - 50.0 °F 94% 29.59 in 6.2 mi East 5.8 mph - N/A   Mostly Cloudy
12:50 AM 51.8 °F - 50.0 °F 94% 29.59 in 6.2 mi NE 4.6 mph - N/A   Mostly Cloudy
1:20 AM 51.8 °F - 50.0 °F 94% 29.59 in 6.2 mi NE 4.6 mph - N/A   Mostly Cloudy
1:50 AM 50.0 °F - 48.2 °F 94% 29.62 in 6.2 mi East 4.6 mph - N/A   Mostly Cloudy
2:00 AM 50 °F - 49 °F 95% 29.62 in 6 mi East 4.6 mph - -   Partly Cloudy
2:20 AM 50.0 °F - 48.2 °F 94% 29.62 in 6.2 mi NE 6.9 mph - N/A   Mostly Cloudy
2:50 AM 50.0 °F - 48.2 °F 94% 29.62 in 6.2 mi NE 6.9 mph - N/A   Mostly Cloudy
3:20 AM 50.0 °F - 48.2 °F 94% 29.62 in 6.2 mi NE 6.9 mph - N/A   Mostly Cloudy
3:50 AM 50.0 °F - 48.2 °F 94% 29.62 in 6.2 mi NE 5.8 mph - N/A   Mostly Cloudy
4:20 AM 50.0 °F - 48.2 °F 94% 29.62 in 6.2 mi NE 5.8 mph - N/A   Mostly Cloudy
4:50 AM 50.0 °F - 48.2 °F 94% 29.65 in 6.2 mi NE 8.1 mph - N/A   Mostly Cloudy
5:20 AM 50.0 °F - 48.2 °F 94% 29.65 in 6.2 mi NE 8.1 mph - N/A   Mostly Cloudy
5:50 AM 48.2 °F - 46.4 °F 93% 29.68 in 6.2 mi ENE 11.5 mph - N/A   Mostly Cloudy
6:20 AM 48.2 °F - 46.4 °F 93% 29.68 in 6.2 mi ENE 11.5 mph - N/A   Mostly Cloudy
6:50 AM 48.2 °F - 46.4 °F 93% 29.71 in 6.2 mi ENE 12.7 mph - N/A   Mostly Cloudy
7:20 AM 48.2 °F - 46.4 °F 93% 29.71 in 6.2 mi ENE 12.7 mph - N/A   Mostly Cloudy
7:50 AM 46.4 °F 40.1 °F 44.6 °F 93% 29.71 in 6.2 mi NE 15.0 mph - N/A   Mostly Cloudy
8:00 AM 46 °F - 45 °F 94% 29.74 in 6 mi NE 15.0 mph - -   Mostly Cloudy
8:20 AM 48.2 °F - 46.4 °F 93% 29.71 in 6.2 mi NNE 15.0 mph - N/A   Scattered Clouds
8:50 AM 50.0 °F - 46.4 °F 87% 29.74 in 6.2 mi NE 15.0 mph - N/A   Scattered Clouds
9:20 AM 51.8 °F - 46.4 °F 82% 29.74 in 6.2 mi NE 16.1 mph - N/A   Scattered Clouds
9:50 AM 51.8 °F - 46.4 °F 82% 29.77 in 6.2 mi NNE 15.0 mph - N/A   Scattered Clouds
10:20 AM 51.8 °F - 46.4 °F 82% 29.77 in 6.2 mi NE 15.0 mph - N/A   Scattered Clouds
10:50 AM 51.8 °F - 41.0 °F 67% 29.77 in 6.2 mi NE 17.3 mph - N/A   Scattered Clouds
11:20 AM 51.8 °F - 41.0 °F 67% 29.77 in 6.2 mi NE 17.3 mph - N/A   Scattered Clouds
11:50 AM 51.8 °F - 41.0 °F 67% 29.77 in 6.2 mi ENE 17.3 mph 28.8 mph N/A   Scattered Clouds
12:20 PM 53.6 °F - 41.0 °F 62% 29.77 in 6.2 mi NE 17.3 mph - N/A   Mostly Cloudy
12:50 PM 53.6 °F - 41.0 °F 62% 29.77 in 6.2 mi NE 17.3 mph - N/A   Mostly Cloudy
1:20 PM 51.8 °F - 41.0 °F 67% 29.77 in 5.0 mi ENE 15.0 mph - N/A Rain Light Rain
1:50 PM 46.4 °F 39.5 °F 42.8 °F 87% 29.77 in 5.0 mi NE 17.3 mph - N/A Rain Light Rain
2:00 PM 47 °F - 42 °F 79% 29.80 in 5 mi NE 17.3 mph - - Rain Light Rain
2:20 PM 46.4 °F 39.5 °F 42.8 °F 87% 29.77 in 5.6 mi NE 17.3 mph - N/A   Light Drizzle
2:50 PM 46.4 °F 40.4 °F 42.8 °F 87% 29.77 in 6.2 mi NE 13.8 mph - N/A Rain Light Rain
3:20 PM 46.4 °F 40.7 °F 42.8 °F 87% 29.77 in 6.2 mi NE 12.7 mph - N/A Rain Light Rain
3:50 PM 46.4 °F 41.1 °F 44.6 °F 93% 29.77 in 6.2 mi NE 11.5 mph - N/A Rain Light Rain
4:20 PM 46.4 °F 40.7 °F 44.6 °F 93% 29.80 in 6.2 mi NE 12.7 mph - N/A Rain Light Rain
4:50 PM 46.4 °F 40.4 °F 44.6 °F 93% 29.77 in 6.2 mi ENE 13.8 mph - N/A   Mostly Cloudy
5:20 PM 48.2 °F - 44.6 °F 87% 29.80 in 6.2 mi NE 13.8 mph - N/A   Mostly Cloudy
5:50 PM 46.4 °F 40.4 °F 42.8 °F 87% 29.80 in 6.2 mi ENE 13.8 mph - N/A   Mostly Cloudy
6:20 PM 46.4 °F 40.7 °F 42.8 °F 87% 29.80 in 6.2 mi NE 12.7 mph - N/A   Mostly Cloudy
6:50 PM 46.4 °F 41.1 °F 42.8 °F 87% 29.80 in 6.2 mi NE 11.5 mph - N/A   Mostly Cloudy
7:20 PM 46.4 °F 41.5 °F 42.8 °F 87% 29.80 in 6.2 mi NE 10.4 mph - N/A   Mostly Cloudy
7:50 PM 46.4 °F 41.1 °F 42.8 °F 87% 29.83 in 6.2 mi NE 11.5 mph - N/A   Mostly Cloudy
8:00 PM 46 °F - 42 °F 83% 29.85 in 6 mi NE 11.5 mph - -   Partly Cloudy
8:20 PM 46.4 °F 40.7 °F 42.8 °F 87% 29.83 in 6.2 mi NE 12.7 mph - N/A   Mostly Cloudy
8:50 PM 46.4 °F 40.7 °F 42.8 °F 87% 29.86 in 6.2 mi NE 12.7 mph - N/A   Mostly Cloudy
9:20 PM 46.4 °F 41.1 °F 42.8 °F 87% 29.86 in 6.2 mi NE 11.5 mph - N/A   Mostly Cloudy
9:50 PM 46.4 °F 41.9 °F 42.8 °F 87% 29.86 in 6.2 mi NNE 9.2 mph - N/A   Mostly Cloudy
10:20 PM 46.4 °F 42.4 °F 42.8 °F 87% 29.86 in 6.2 mi NNE 8.1 mph - N/A   Mostly Cloudy
10:50 PM 46.4 °F 41.5 °F 42.8 °F 87% 29.86 in 6.2 mi NE 10.4 mph - N/A   Mostly Cloudy
11:20 PM 46.4 °F 42.4 °F 42.8 °F 87% 29.86 in 6.2 mi NE 8.1 mph - N/A   Mostly Cloudy
11:50 PM 46.4 °F 40.7 °F 42.8 °F 87% 29.89 in 6.2 mi NE 12.7 mph - N/A   Mostly Cloudy